Location: Zagreb
(45.8000°N, 16.0000°E)
Time: 12:55:35
(UTC+02:00)

Envisat - Pass Details

Date: 21 January 2022
Orbit: 764 x 765 km, 98.2° (Epoch: 22 May)

Event Time Altitude Azimuth Distance (km) Brightness Sun altitude
Rises 06:42:33 0° 356° (N) 3,241 6.0 -8.2°
Reaches altitude 10° 06:46:10 10° 329° (NNW) 2,309 5.0 -7.7°
Maximum altitude 06:48:20 13° 304° (NW) 2,115 4.7 -7.3°
Drops below altitude 10° 06:50:30 10° 278° (W) 2,304 4.8 -7.0°
Sets 06:54:07 0° 252° (WSW) 3,225 5.8 -6.4°
